JA923B RJSS-RJSS

Flight info

Callsign JA923B
Flight time 0h 2m
Altitude 1000
Route RJSS/YURIAGE/TAGAZYO/SENDAI/NATORI/RJSS
Aircraft S76/L-SDG/L

Departure

Time 2026-04-14 12:57
Airport Sendai Airport (RJSS)

Arrival

Time 2026-04-14 12:59
Airport Sendai Airport (RJSS)
Time Latitude Longitude Altitude Speed Heading
2026-04-14 12:33 38.13570 140.91623 8 ft 0 kts 301°
2026-04-14 12:38 38.13580 140.91616 8 ft 4 kts 11°
2026-04-14 12:38 38.13574 140.91644 8 ft 3 kts 107°
2026-04-14 12:38 38.13589 140.91660 8 ft 3 kts 13°
2026-04-14 12:39 38.13616 140.91676 8 ft 4 kts 46°
2026-04-14 12:39 38.13617 140.91698 8 ft 0 kts 113°
2026-04-14 12:40 38.13615 140.91701 15 ft 1 kts 114°
2026-04-14 12:40 38.13552 140.91851 88 ft 43 kts 117°
2026-04-14 12:40 38.13349 140.92296 222 ft 70 kts 122°
2026-04-14 12:41 38.12956 140.92665 325 ft 75 kts 179°
2026-04-14 12:41 38.12515 140.92392 388 ft 69 kts 210°
2026-04-14 12:41 38.12382 140.91749 473 ft 89 kts 276°
2026-04-14 12:41 38.12663 140.91047 559 ft 88 kts 291°
2026-04-14 12:42 38.12976 140.90418 512 ft 79 kts 320°
2026-04-14 12:42 38.13459 140.90477 451 ft 81 kts 35°
2026-04-14 12:42 38.13775 140.91016 308 ft 61 kts 77°
2026-04-14 12:42 38.13734 140.91413 175 ft 36 kts 104°
2026-04-14 12:43 38.13659 140.91619 87 ft 22 kts 107°
2026-04-14 12:43 38.13620 140.91696 42 ft 3 kts 113°
2026-04-14 12:43 38.13548 140.91870 119 ft 49 kts 114°
2026-04-14 12:43 38.13356 140.92375 245 ft 78 kts 115°
2026-04-14 12:44 38.13002 140.92941 406 ft 82 kts 159°
2026-04-14 12:44 38.12509 140.92751 464 ft 75 kts 203°
2026-04-14 12:44 38.12333 140.92161 537 ft 83 kts 278°
2026-04-14 12:45 38.12914 140.90826 447 ft 78 kts 306°
2026-04-14 12:45 38.13390 140.90699 376 ft 70 kts 20°
2026-04-14 12:45 38.13696 140.91053 261 ft 50 kts 76°
2026-04-14 12:45 38.13714 140.91393 160 ft 33 kts 101°
2026-04-14 12:46 38.13647 140.91621 60 ft 20 kts 110°
2026-04-14 12:46 38.13619 140.91695 21 ft 1 kts 115°
2026-04-14 12:46 38.13616 140.91699 11 ft 0 kts 111°
2026-04-14 12:48 38.13614 140.91704 17 ft 0 kts 112°
2026-04-14 12:48 38.13616 140.91702 17 ft 2 kts 111°
2026-04-14 12:48 38.13624 140.91683 25 ft 3 kts 115°
2026-04-14 12:48 38.13618 140.91695 18 ft 1 kts 114°
2026-04-14 12:49 38.13616 140.91700 11 ft 0 kts 110°
2026-04-14 12:49 38.13615 140.91700 13 ft 0 kts 115°
2026-04-14 12:49 38.13583 140.91777 85 ft 28 kts 117°
2026-04-14 12:49 38.13413 140.92133 202 ft 63 kts 120°
2026-04-14 12:50 38.13114 140.92636 269 ft 79 kts 147°
2026-04-14 12:50 38.12725 140.91731 463 ft 87 kts 288°
2026-04-14 12:50 38.12976 140.91092 437 ft 76 kts 289°
2026-04-14 12:51 38.13354 140.90751 412 ft 69 kts 359°
2026-04-14 12:51 38.13699 140.91004 296 ft 50 kts 71°
2026-04-14 12:51 38.13722 140.91345 175 ft 32 kts 103°
2026-04-14 12:51 38.13673 140.91573 70 ft 19 kts 114°
2026-04-14 12:52 38.13625 140.91683 29 ft 9 kts 116°
2026-04-14 12:52 38.13617 140.91694 19 ft 3 kts 115°
2026-04-14 12:52 38.13615 140.91699 11 ft 0 kts 111°
2026-04-14 12:52 38.13607 140.91715 34 ft 13 kts 117°
2026-04-14 12:53 38.13473 140.92021 173 ft 62 kts 120°
2026-04-14 12:53 38.13183 140.92567 311 ft 81 kts 138°
2026-04-14 12:53 38.12734 140.92442 452 ft 76 kts 227°
2026-04-14 12:53 38.12700 140.91765 482 ft 83 kts 286°
2026-04-14 12:54 38.12957 140.91101 449 ft 83 kts 294°
2026-04-14 12:54 38.13332 140.90651 405 ft 69 kts 358°
2026-04-14 12:54 38.13706 140.90887 307 ft 60 kts 61°
2026-04-14 12:54 38.13762 140.91308 190 ft 38 kts 103°
2026-04-14 12:55 38.13688 140.91535 106 ft 20 kts 110°
2026-04-14 12:55 38.13632 140.91672 36 ft 13 kts 111°
2026-04-14 12:55 38.13618 140.91694 23 ft 3 kts 111°
2026-04-14 12:55 38.13616 140.91699 11 ft 0 kts 108°
2026-04-14 12:56 38.13616 140.91698 11 ft 0 kts 112°
2026-04-14 12:56 38.13600 140.91739 45 ft 25 kts 116°
2026-04-14 12:56 38.13454 140.92118 139 ft 63 kts 117°
2026-04-14 12:56 38.13181 140.92622 296 ft 74 kts 151°
2026-04-14 12:57 38.12748 140.92338 467 ft 86 kts 245°
2026-04-14 12:57 38.12901 140.91544 612 ft 102 kts 282°
2026-04-14 12:57 38.13144 140.90576 679 ft 129 kts 279°
2026-04-14 12:57 38.13415 140.89403 886 ft 145 kts 280°
2026-04-14 12:58 38.13739 140.88192 921 ft 138 kts 292°
2026-04-14 12:58 38.14371 140.87679 998 ft 95 kts 13°
2026-04-14 12:58 38.14697 140.88344 787 ft 110 kts 94°
2026-04-14 12:58 38.14460 140.89332 624 ft 120 kts 111°
2026-04-14 12:59 38.14178 140.90206 461 ft 88 kts 109°
2026-04-14 12:59 38.13992 140.90778 304 ft 57 kts 112°
2026-04-14 12:59 38.13837 140.91165 216 ft 44 kts 112°
2026-04-14 12:59 38.13717 140.91455 119 ft 31 kts 112°
2026-04-14 13:00 38.13636 140.91649 37 ft 17 kts 113°
2026-04-14 13:00 38.13615 140.91700 12 ft 2 kts 111°
2026-04-14 13:00 38.13614 140.91702 8 ft 0 kts 111°
2026-04-14 13:00 38.13613 140.91705 18 ft 1 kts 112°
2026-04-14 13:01 38.13616 140.91699 14 ft 1 kts 114°
2026-04-14 13:01 38.13618 140.91695 11 ft 1 kts 111°
2026-04-14 13:01 38.13617 140.91696 8 ft 0 kts 109°
2026-04-14 13:02 38.13614 140.91702 12 ft 2 kts 110°
2026-04-14 13:02 38.13617 140.91695 16 ft 2 kts 112°
2026-04-14 13:02 38.13616 140.91697 8 ft 0 kts 109°
2026-04-14 13:04 38.13617 140.91694 20 ft 2 kts 115°
2026-04-14 13:05 38.13616 140.91698 13 ft 0 kts 111°
2026-04-14 13:05 38.13615 140.91698 8 ft 0 kts 108°
2026-04-14 13:05 38.13614 140.91700 15 ft 1 kts 114°
2026-04-14 13:06 38.13614 140.91693 17 ft 2 kts 110°
2026-04-14 13:06 38.13599 140.91730 57 ft 23 kts 115°
2026-04-14 13:06 38.13408 140.92112 176 ft 72 kts 122°
2026-04-14 13:06 38.13084 140.92738 299 ft 97 kts 121°
2026-04-14 13:07 38.12550 140.93080 511 ft 84 kts 198°
2026-04-14 13:07 38.12290 140.92398 500 ft 99 kts 262°
2026-04-14 13:07 38.12515 140.91528 486 ft 106 kts 290°
2026-04-14 13:07 38.12858 140.90715 547 ft 104 kts 291°
2026-04-14 13:08 38.13204 140.89919 602 ft 102 kts 291°
2026-04-14 13:08 38.13551 140.89145 646 ft 100 kts 295°
2026-04-14 13:08 38.14075 140.88934 540 ft 76 kts 49°
2026-04-14 13:08 38.14136 140.89556 495 ft 86 kts 95°
2026-04-14 13:09 38.14086 140.90320 396 ft 79 kts 101°
2026-04-14 13:09 38.13951 140.90858 285 ft 51 kts 111°
2026-04-14 13:09 38.13829 140.91192 216 ft 35 kts 113°
2026-04-14 13:09 38.13723 140.91438 126 ft 28 kts 113°
2026-04-14 13:10 38.13645 140.91631 50 ft 19 kts 113°
2026-04-14 13:10 38.13619 140.91694 23 ft 1 kts 112°
2026-04-14 13:10 38.13616 140.91700 8 ft 0 kts 112°
2026-04-14 13:11 38.13615 140.91701 17 ft 1 kts 117°
2026-04-14 13:11 38.13545 140.91856 106 ft 45 kts 120°
2026-04-14 13:11 38.13402 140.92323 334 ft 60 kts 93°
2026-04-14 13:11 38.13752 140.92647 487 ft 79 kts 16°
2026-04-14 13:12 38.14309 140.93009 558 ft 99 kts 33°
2026-04-14 13:12 38.14928 140.93539 808 ft 115 kts 37°
2026-04-14 13:12 38.15619 140.94160 1029 ft 128 kts 36°
2026-04-14 13:12 38.16409 140.94858 1039 ft 143 kts 34°
2026-04-14 13:13 38.17221 140.95578 1034 ft 142 kts 34°
2026-04-14 13:13 38.18025 140.96290 1024 ft 140 kts 34°
2026-04-14 13:13 38.18820 140.96984 1015 ft 137 kts 32°
2026-04-14 13:13 38.19631 140.97622 1004 ft 137 kts 31°
2026-04-14 13:14 38.20441 140.98255 1002 ft 136 kts 31°
2026-04-14 13:14 38.21245 140.98875 1004 ft 135 kts 30°
2026-04-14 13:14 38.22051 140.99481 1003 ft 135 kts 30°
2026-04-14 13:14 38.22857 141.00087 1004 ft 134 kts 30°
2026-04-14 13:15 38.23659 141.00690 1002 ft 134 kts 30°
2026-04-14 13:15 38.24461 141.01286 1003 ft 133 kts 25°
2026-04-14 13:15 38.25363 141.01343 1000 ft 133 kts 337°
2026-04-14 13:15 38.26206 141.00845 1002 ft 133 kts 319°
2026-04-14 13:16 38.26790 140.99962 1002 ft 131 kts 298°
2026-04-14 13:16 38.27305 140.99000 1002 ft 132 kts 297°
2026-04-14 13:16 38.27821 140.98031 1003 ft 132 kts 297°
2026-04-14 13:16 38.28177 140.97000 1000 ft 125 kts 268°
2026-04-14 13:17 38.28328 140.95891 997 ft 128 kts 274°
2026-04-14 13:17 38.28504 140.94796 998 ft 128 kts 274°
2026-04-14 13:17 38.28679 140.93689 1000 ft 126 kts 268°
2026-04-14 13:17 38.28500 140.92643 1001 ft 121 kts 241°
2026-04-14 13:18 38.28191 140.91633 1002 ft 123 kts 241°
2026-04-14 13:18 38.27881 140.90623 1003 ft 121 kts 241°
2026-04-14 13:18 38.27575 140.89622 1003 ft 121 kts 241°
2026-04-14 13:18 38.27094 140.88783 998 ft 119 kts 227°
2026-04-14 13:19 38.26627 140.87920 1002 ft 117 kts 216°
2026-04-14 13:19 38.25986 140.87287 994 ft 122 kts 228°
2026-04-14 13:19 38.25821 140.86218 1003 ft 126 kts 263°
2026-04-14 13:19 38.25607 140.85199 1007 ft 120 kts 240°
2026-04-14 13:20 38.25286 140.84212 1004 ft 120 kts 236°
2026-04-14 13:20 38.24657 140.83624 1003 ft 114 kts 185°
2026-04-14 13:20 38.23928 140.83916 1002 ft 115 kts 135°
2026-04-14 13:20 38.23465 140.84756 1000 ft 118 kts 121°
2026-04-14 13:21 38.23054 140.85656 1002 ft 118 kts 118°
2026-04-14 13:21 38.22678 140.86573 1000 ft 118 kts 117°
2026-04-14 13:21 38.22296 140.87510 982 ft 121 kts 118°
2026-04-14 13:21 38.21896 140.88461 953 ft 122 kts 118°
2026-04-14 13:22 38.21487 140.89419 929 ft 123 kts 119°
2026-04-14 13:22 38.20867 140.90088 891 ft 119 kts 164°
2026-04-14 13:22 38.20091 140.89881 843 ft 121 kts 211°
2026-04-14 13:22 38.19435 140.89208 811 ft 122 kts 212°
2026-04-14 13:23 38.18774 140.88515 760 ft 124 kts 213°
2026-04-14 13:23 38.17984 140.88240 716 ft 120 kts 166°
2026-04-14 13:23 38.17168 140.88493 660 ft 122 kts 166°
2026-04-14 13:23 38.16336 140.88696 626 ft 122 kts 166°
2026-04-14 13:24 38.15506 140.88895 621 ft 121 kts 166°
2026-04-14 13:24 38.14204 140.89758 659 ft 85 kts 104°
2026-04-14 13:24 38.14084 140.90420 442 ft 68 kts 105°
2026-04-14 13:25 38.13937 140.90926 249 ft 52 kts 115°
2026-04-14 13:25 38.13797 140.91265 165 ft 37 kts 114°
2026-04-14 13:26 38.13615 140.91699 8 ft 2 kts 108°
2026-04-14 13:26 38.13609 140.91673 9 ft 5 kts 255°
2026-04-14 13:26 38.13575 140.91658 8 ft 5 kts 203°
2026-04-14 13:26 38.13564 140.91637 8 ft 1 kts 277°
2026-04-14 13:27 38.13569 140.91623 8 ft 2 kts 295°
2026-04-14 13:27 38.13571 140.91618 8 ft 0 kts 295°
2026-04-14 13:27 38.13571 140.91619 8 ft 0 kts 277°